Location: Volkssternwarte_EN
(51.3230°N, 7.4010°E)
Time: 06:34:25
(UTC+01:00)

BlueWalker 3 - Pass Details

Date: 30 November 2022
Orbit: 499 x 517 km, 53.2° (Epoch: 28 January)

Event Time Altitude Azimuth Distance (km) Brightness Sun altitude
Rises 17:29:12 0° 248° (WSW) 2,629 8.0 -9.4°
Reaches altitude 10° 17:31:24 10° 248° (WSW) 1,741 6.3 -9.7°
Maximum altitude 17:35:20 84° 160° (SSE) 521 2.0 -10.3°
Enters shadow 17:38:28 16° 73° (ENE) 1,414 3.5 -10.7°
